Hauptseite
METAR-TAF:

METAR-TAF

Flughäfen :

City-Airport Mannheim

Mannheim, Deutschland

Breite: 49-28-21N, Länge: 008-30-56E, Höhe: 100 m

Beobachtung

Neuester Wetterbericht von vor 16 Minuten, um 11:20 UTC
Wind 6 kt aus Süd, variierte zwischen Südost und West/Südwest
Temperatur 27°C
Luftfeuchtigkeit 42%
Luftdruck 1020 hPa
Sichtweite 10 km oder mehr
keine Wolken unter 1500 m und keine Kumulonimbus oder Gewitterwolken

METAR: EDFM 191120Z 19006KT 130V250 CAVOK 27/13 Q1020

Zeit: 13:36 (11:36 UTC)

Prognose

Neuester Wetterbericht von vor 3 Stunden und 36 Minuten, um 08:00 UTC
Gültige Prognose vom 19 um 09 UTC bis 19 um 18 UTC
Wind 6 kt aus Süd
Sichtweite 10 km oder mehr
keine Wolken unter 1500 m und keine Kumulonimbus oder Gewitterwolken

TAF: EDFM 190800Z 1909/1918 19006KT CAVOK

Wetterbeobachtungen und Prognosen von mehr als 4000 Flughäfen (METAR und TAF Bericht).

Die verfügbaren Stationen werden durch gelbe und rote Markierungen auf der Karte dargestellt.

Führen Sie die Maus auf sie, um den Namen der Station zu sehen.

Darauf klicken, um die Beobachtung von Wetterbeobachtungen und Prognosen zu sehen.

Um die Karte zu ändern : klicken Sie auf den grünen Tasten mit einem schwarzen Kreuz Zum Vergrößern, auf den grünen Button mit einem Gedankenstrich zu verkleinern, oder auf die grünen Pfeile für benachbarte Karten.


METAR-TAF: